TimeCST,TemperatureF,Dew PointF,Humidity,Sea Level PressureIn,VisibilityMPH,Wind Direction,Wind SpeedMPH,Gust SpeedMPH,PrecipitationIn,Events,Conditions,WindDirDegrees,DateUTC
12:15 AM,23.0,21.2,93,30.10,10.0,Calm,Calm,-,N/A,,Scattered Clouds,0,2013-02-25 06:15:00
12:35 AM,24.8,23.0,93,30.10,10.0,East,4.6,-,N/A,,Overcast,90,2013-02-25 06:35:00
12:55 AM,23.0,21.2,93,30.09,10.0,East,5.8,-,N/A,,Overcast,80,2013-02-25 06:55:00
1:15 AM,23.0,21.2,93,30.09,7.0,East,6.9,-,N/A,,Mostly Cloudy,80,2013-02-25 07:15:00
1:35 AM,21.2,21.2,100,30.08,7.0,East,8.1,-,N/A,,Mostly Cloudy,90,2013-02-25 07:35:00
1:55 AM,23.0,21.2,93,30.08,7.0,East,8.1,-,N/A,,Scattered Clouds,100,2013-02-25 07:55:00
2:15 AM,23.0,21.2,93,30.09,7.0,SE,5.8,-,N/A,,Clear,130,2013-02-25 08:15:00
2:35 AM,21.2,19.4,93,30.09,7.0,ESE,3.5,-,N/A,,Clear,110,2013-02-25 08:35:00
2:55 AM,23.0,21.2,93,30.09,7.0,East,4.6,-,N/A,,Mostly Cloudy,100,2013-02-25 08:55:00
3:15 AM,23.0,21.2,93,30.09,5.0,Calm,Calm,-,N/A,,Overcast,0,2013-02-25 09:15:00
3:35 AM,24.8,21.2,86,30.08,5.0,ENE,4.6,-,N/A,,Overcast,60,2013-02-25 09:35:00
3:55 AM,23.0,21.2,93,30.08,5.0,NE,5.8,-,N/A,,Overcast,50,2013-02-25 09:55:00
4:15 AM,23.0,21.2,93,30.10,5.0,Calm,Calm,-,N/A,,Mostly Cloudy,0,2013-02-25 10:15:00
4:35 AM,23.0,23.0,100,30.08,5.0,ENE,6.9,-,N/A,,Scattered Clouds,60,2013-02-25 10:35:00
4:55 AM,21.2,21.2,100,30.08,4.0,East,8.1,-,N/A,,Mostly Cloudy,80,2013-02-25 10:55:00
5:15 AM,21.2,21.2,100,30.09,5.0,NE,6.9,-,N/A,,Overcast,50,2013-02-25 11:15:00
5:35 AM,21.2,21.2,100,30.07,4.0,ENE,5.8,-,N/A,,Scattered Clouds,60,2013-02-25 11:35:00
5:55 AM,21.2,21.2,100,30.08,4.0,ENE,8.1,-,N/A,,Clear,70,2013-02-25 11:55:00
6:15 AM,21.2,21.2,100,30.08,4.0,ENE,8.1,-,N/A,,Clear,60,2013-02-25 12:15:00
6:35 AM,21.2,21.2,100,30.08,4.0,ENE,8.1,-,N/A,,Clear,70,2013-02-25 12:35:00
6:55 AM,21.2,21.2,100,30.08,4.0,East,9.2,-,N/A,,Clear,80,2013-02-25 12:55:00
7:15 AM,21.2,21.2,100,30.08,4.0,East,8.1,-,N/A,,Clear,80,2013-02-25 13:15:00
7:35 AM,23.0,23.0,100,30.08,5.0,East,6.9,-,N/A,,Clear,90,2013-02-25 13:35:00
7:55 AM,26.6,24.8,93,30.09,5.0,East,8.1,-,N/A,,Clear,80,2013-02-25 13:55:00
8:15 AM,28.4,24.8,86,30.10,4.0,ENE,4.6,-,N/A,,Clear,60,2013-02-25 14:15:00
8:35 AM,28.4,26.6,93,30.09,4.0,East,4.6,-,N/A,,Clear,80,2013-02-25 14:35:00
8:55 AM,30.2,26.6,86,30.09,4.0,East,5.8,-,N/A,,Clear,80,2013-02-25 14:55:00
9:15 AM,30.2,26.6,86,30.09,5.0,ENE,5.8,-,N/A,,Clear,70,2013-02-25 15:15:00
9:35 AM,32.0,28.4,87,30.10,5.0,East,3.5,-,N/A,,Clear,80,2013-02-25 15:35:00
9:55 AM,33.8,28.4,81,30.10,5.0,ESE,5.8,-,N/A,,Haze,110,2013-02-25 15:55:00
10:15 AM,35.6,28.4,75,30.10,7.0,SE,9.2,-,N/A,,Scattered Clouds,130,2013-02-25 16:15:00
10:35 AM,35.6,28.4,75,30.09,7.0,East,8.1,-,N/A,,Clear,90,2013-02-25 16:35:00
10:55 AM,35.6,30.2,81,30.08,7.0,East,9.2,-,N/A,,Clear,100,2013-02-25 16:55:00
11:15 AM,35.6,30.2,81,30.08,7.0,East,8.1,-,N/A,,Clear,100,2013-02-25 17:15:00
11:35 AM,37.4,30.2,75,30.09,10.0,ESE,8.1,-,N/A,,Clear,110,2013-02-25 17:35:00
11:55 AM,37.4,30.2,75,30.10,10.0,ESE,8.1,-,N/A,,Clear,120,2013-02-25 17:55:00
12:15 PM,37.4,30.2,75,30.08,10.0,ESE,8.1,-,N/A,,Clear,110,2013-02-25 18:15:00
12:35 PM,39.2,30.2,70,30.07,10.0,East,6.9,-,N/A,,Clear,100,2013-02-25 18:35:00
12:55 PM,39.2,30.2,70,30.06,10.0,ENE,5.8,-,N/A,,Clear,70,2013-02-25 18:55:00
1:15 PM,39.2,30.2,70,30.05,10.0,ENE,8.1,-,N/A,,Clear,70,2013-02-25 19:15:00
1:35 PM,39.2,30.2,70,30.05,10.0,ENE,9.2,-,N/A,,Clear,60,2013-02-25 19:35:00
1:55 PM,39.2,30.2,70,30.04,10.0,ENE,9.2,-,N/A,,Clear,60,2013-02-25 19:55:00
2:15 PM,39.2,30.2,70,30.03,10.0,ENE,11.5,-,N/A,,Clear,70,2013-02-25 20:15:00
2:35 PM,39.2,30.2,70,30.02,10.0,ENE,11.5,-,N/A,,Clear,60,2013-02-25 20:35:00
2:55 PM,39.2,30.2,70,30.01,10.0,ENE,8.1,-,N/A,,Clear,70,2013-02-25 20:55:00
3:15 PM,39.2,30.2,70,30.01,10.0,East,8.1,-,N/A,,Clear,80,2013-02-25 21:15:00
3:35 PM,39.2,32.0,75,30.00,10.0,ENE,8.1,-,N/A,,Clear,60,2013-02-25 21:35:00
3:55 PM,37.4,32.0,81,30.00,10.0,NE,6.9,-,N/A,,Clear,50,2013-02-25 21:55:00
4:15 PM,37.4,32.0,81,29.99,10.0,NE,8.1,-,N/A,,Clear,50,2013-02-25 22:15:00
4:35 PM,37.4,32.0,81,29.99,10.0,NE,8.1,-,N/A,,Clear,50,2013-02-25 22:35:00
4:55 PM,37.4,32.0,81,29.99,10.0,NE,6.9,-,N/A,,Clear,40,2013-02-25 22:55:00
5:15 PM,35.6,32.0,87,29.98,7.0,NNE,8.1,-,N/A,,Clear,30,2013-02-25 23:15:00
5:35 PM,35.6,32.0,87,29.98,7.0,NE,10.4,-,N/A,,Clear,40,2013-02-25 23:35:00
5:55 PM,35.6,32.0,87,29.98,7.0,NE,10.4,-,N/A,,Clear,40,2013-02-25 23:55:00
6:15 PM,35.6,32.0,87,29.98,7.0,NE,10.4,-,N/A,,Scattered Clouds,40,2013-02-26 00:15:00
6:35 PM,35.6,30.2,81,29.99,7.0,NE,10.4,-,N/A,,Scattered Clouds,40,2013-02-26 00:35:00
6:55 PM,35.6,30.2,81,29.99,7.0,NE,9.2,-,N/A,,Clear,40,2013-02-26 00:55:00
7:15 PM,35.6,30.2,81,29.98,7.0,NE,11.5,-,N/A,,Clear,40,2013-02-26 01:15:00
7:35 PM,33.8,30.2,87,29.98,7.0,NE,9.2,-,N/A,,Clear,50,2013-02-26 01:35:00
7:55 PM,33.8,30.2,87,29.97,7.0,NE,10.4,-,N/A,,Scattered Clouds,50,2013-02-26 01:55:00
8:15 PM,33.8,30.2,87,29.96,7.0,NE,12.7,-,N/A,,Scattered Clouds,50,2013-02-26 02:15:00
8:55 PM,35.6,30.2,81,29.95,7.0,ENE,17.3,23.0,N/A,,Scattered Clouds,60,2013-02-26 02:55:00
9:15 PM,35.6,30.2,81,29.95,7.0,ENE,13.8,-,N/A,,Mostly Cloudy,70,2013-02-26 03:15:00
9:35 PM,35.6,30.2,81,29.93,7.0,ENE,13.8,-,N/A,,Scattered Clouds,60,2013-02-26 03:35:00
9:55 PM,35.6,30.2,81,29.91,7.0,ENE,17.3,-,N/A,,Clear,60,2013-02-26 03:55:00
10:15 PM,35.6,30.2,81,29.91,7.0,ENE,16.1,-,N/A,,Scattered Clouds,60,2013-02-26 04:15:00
10:35 PM,35.6,30.2,81,29.91,7.0,ENE,13.8,-,N/A,,Scattered Clouds,60,2013-02-26 04:35:00
10:55 PM,35.6,30.2,81,29.90,7.0,ENE,15.0,-,N/A,,Scattered Clouds,60,2013-02-26 04:55:00
11:15 PM,35.6,30.2,81,29.89,7.0,ENE,15.0,-,N/A,,Mostly Cloudy,60,2013-02-26 05:15:00
11:35 PM,35.6,28.4,75,29.87,7.0,ENE,19.6,24.2,N/A,,Mostly Cloudy,60,2013-02-26 05:35:00
11:55 PM,35.6,30.2,81,29.87,7.0,ENE,15.0,-,N/A,,Overcast,60,2013-02-26 05:55:00